TIANHUI 1-04 (49049 NORAD) Tracking and Keplerian Element Data

This shows tracking and keplerian element data for the satellite.

Feedback or suggestion? Click here.




ElementValue
Catalog49049
NameTIANHUI 1-04
Epoch Orbit897
Epoch Day269.19721769
Epoch Year2021
RAAN341.1222
Inclination97.4691
Eccentricity0.0001519
Argument of Perigee82.4926
Mean Anonmoly333.0498
Mean Motion15.23387515
Decay Rate1.368E-05
L11 49049U 21067A 21269.19721769 .00001368 00000-0 60513-4 0 9991
L22 49049 97.4691 341.1222 0001519 82.4926 333.0498 15.23387515 8970

Live tracking and technical data element details for TIANHUI 1-04 (NORAD 49049). TIANHUI 1-04 can be tracked NOW for your location showing map with azimuth and elevation plus other details from your city location.

Track the satellite on the map from your city or location and see movement details for azimuth, elevation, latitude, longitude, range, height, and movement on the map or in text.







IsCatalogInMostPopularTable: catalog: 49049, numindb: 17
Update: records affected: 1



GetName: 49049 TIANHUI 1-04

Hit Count: updated at: Sun, 26 Sep 2021 15:16:07 GMT